{"data":{"norad_id":65140,"intl_designator":"2025-171J","name":"KUIPER-00102","alt_names":[],"object_type":"PAYLOAD","status":"ACTIVE","operator":null,"country":"US","launch_date":"2025-08-11","launch_site_code":"AFETR","launch_vehicle":null,"mission":null,"orbit_class":"UNKNOWN","rcs_meters":null,"size_class":null,"mass_kg":null,"dimensions":null,"purposes":[],"wikipedia_slug":null,"has_3d_model":false,"image_url":null,"decayed_at":null,"tle_current":{"epoch":"2026-09-21T18:56:48.251040Z","epoch_age_seconds":53541,"freshness":"FRESH","line1":"1 65140U 25171J   26264.78944735  .00002119  00000+0  30681-3 0  9992","line2":"2 65140  51.8993   5.8894 0000348 126.6702 233.4293 14.79935164 61996","mean_motion":14.79935164,"eccentricity":3.48e-5,"inclination_deg":51.8993,"raan_deg":5.8894,"arg_perigee_deg":126.6702,"mean_anomaly_deg":233.4293,"bstar":0.00030681,"rev_number":6199,"period_min":97.301559894552,"perigee_km":629.28493120179,"apogee_km":629.77266474133,"semimajor_km":7007.6657979716,"source":"CELESTRAK","updated_at":"2026-09-22T09:00:30.153061Z"}}}